Location: Tenerife
(28.2947°N, 16.5650°W)
Time: 11:50:26
(UTC+00:00)

Tiangong 2 - Visible Passes

Search period start: 20 November 2017 00:00
Search period end: 30 November 2017 00:00
Orbit: 386 x 391 km, 42.8° (Epoch: 20 November)

Date Brightness Start Highest point End Pass type
(mag) Time Alt. Az. Time Alt. Az. Time Alt. Az.
24 Nov 2.3 06:59:24 10° SW 07:02:26 45° SE 07:05:30 10° ENE visible
25 Nov 3.7 06:01:55 10° S 06:04:22 20° SE 06:06:49 10° E visible
26 Nov 1.0 06:40:10 14° WSW 06:42:48 70° NW 06:45:59 10° NE visible
27 Nov 2.9 05:45:47 31° E 05:45:47 31° E 05:47:43 10° ENE visible
28 Nov 2.1 06:23:27 30° NNW 06:23:27 30° NNW 06:26:07 10° NE visible
29 Nov 3.4 07:00:59 10° NW 07:02:13 12° NNW 07:03:27 10° N visible
